StationID,Date,MaxTemp,MinTemp,Precipitation,Snowfall,SnowDepth
"CA001107876","1962-11-01",50.00,44.96,0.00,0.00,
"CA001107876","1962-11-02",57.92,39.92,0.00,0.00,
"CA001107876","1962-11-03",51.98,39.02,203.00,0.00,
"CA001107876","1962-11-04",55.94,,155.00,0.00,
"CA001107876","1962-11-05",53.96,42.98,3.00,0.00,
"CA001107876","1962-11-06",55.04,41.00,0.00,0.00,
"CA001107876","1962-11-07",55.94,39.92,168.00,0.00,
"CA001107876","1962-11-08",53.06,39.92,20.00,0.00,
"CA001107876","1962-11-09",53.96,42.08,8.00,0.00,
"CA001107876","1962-11-10",53.06,42.98,58.00,0.00,
"CA001107876","1962-11-11",,,33.00,0.00,
"CA001107876","1962-11-12",,,86.00,0.00,
"CA001107876","1962-11-13",50.00,39.92,112.00,0.00,
"CA001107876","1962-11-14",51.08,35.96,74.00,0.00,
"CA001107876","1962-11-15",44.96,41.00,18.00,0.00,
"CA001107876","1962-11-16",48.02,37.94,102.00,0.00,
"CA001107876","1962-11-17",46.04,39.02,0.00,0.00,
"CA001107876","1962-11-18",51.08,39.92,76.00,0.00,
"CA001107876","1962-11-19",55.04,37.94,137.00,0.00,
"CA001107876","1962-11-20",46.94,44.96,20.00,0.00,
"CA001107876","1962-11-21",48.02,35.06,18.00,0.00,
"CA001107876","1962-11-22",48.02,35.96,0.00,0.00,
"CA001107876","1962-11-23",48.92,35.06,8.00,0.00,
"CA001107876","1962-11-24",50.00,39.92,104.00,0.00,
"CA001107876","1962-11-25",,39.02,249.00,0.00,
"CA001107876","1962-11-26",48.92,41.00,10.00,0.00,
"CA001107876","1962-11-27",44.06,37.94,25.00,0.00,
"CA001107876","1962-11-28",39.02,33.08,64.00,64.00,
"CA001107876","1962-11-29",37.94,33.08,246.00,51.00,
"CA001107876","1962-11-30",42.98,35.96,0.00,0.00,
"CA001107876","1962-12-01",42.98,33.08,28.00,0.00,
"CA001107876","1962-12-02",42.98,35.06,112.00,0.00,
"CA001107876","1962-12-03",41.00,32.00,51.00,0.00,
"CA001107876","1962-12-04",42.08,35.06,71.00,0.00,
"CA001107876","1962-12-05",53.06,37.94,56.00,0.00,
"CA001107876","1962-12-06",48.92,37.04,30.00,0.00,
"CA001107876","1962-12-07",46.94,42.98,36.00,0.00,
"CA001107876","1962-12-08",50.00,44.06,0.00,0.00,
"CA001107876","1962-12-09",48.02,30.92,0.00,0.00,
"CA001107876","1962-12-10",39.02,30.02,0.00,0.00,
"CA001107876","1962-12-11",37.94,32.00,0.00,0.00,
"CA001107876","1962-12-12",44.06,26.96,53.00,0.00,
"CA001107876","1962-12-13",48.02,39.02,213.00,0.00,
"CA001107876","1962-12-14",55.04,44.06,74.00,0.00,
"CA001107876","1962-12-15",53.96,48.02,69.00,0.00,
"CA001107876","1962-12-16",50.00,44.06,38.00,0.00,
"CA001107876","1962-12-17",48.92,42.98,13.00,0.00,
"CA001107876","1962-12-18",48.02,39.02,109.00,0.00,
"CA001107876","1962-12-19",44.06,37.94,38.00,0.00,
"CA001107876","1962-12-20",44.06,39.92,99.00,0.00,
"CA001107876","1962-12-21",46.04,39.92,0.00,0.00,
"CA001107876","1962-12-22",44.96,30.02,0.00,0.00,
"CA001107876","1962-12-23",42.08,26.06,0.00,0.00,
"CA001107876","1962-12-24",33.08,26.96,0.00,0.00,
"CA001107876","1962-12-25",37.94,21.92,0.00,0.00,
"CA001107876","1962-12-26",33.98,21.92,13.00,13.00,
"CA001107876","1962-12-27",42.08,28.94,343.00,0.00,
"CA001107876","1962-12-28",46.94,35.06,173.00,0.00,
"CA001107876","1962-12-29",48.02,39.02,508.00,0.00,
"CA001107876","1962-12-30",48.92,39.02,48.00,0.00,
"CA001107876","1962-12-31",48.02,37.94,61.00,0.00,
"CA001107876","1963-01-01",48.02,44.06,53.00,0.00,
"CA001107876","1963-01-02",48.02,42.98,104.00,0.00,
"CA001107876","1963-01-03",48.92,37.94,0.00,0.00,
"CA001107876","1963-01-04",44.06,35.06,0.00,0.00,
"CA001107876","1963-01-05",39.92,30.92,0.00,0.00,
"CA001107876","1963-01-06",37.04,35.06,0.00,0.00,
"CA001107876","1963-01-07",35.96,32.00,13.00,0.00,
"CA001107876","1963-01-08",41.00,33.98,13.00,0.00,
"CA001107876","1963-01-09",41.00,30.92,0.00,0.00,
"CA001107876","1963-01-10",21.92,12.92,0.00,0.00,
"CA001107876","1963-01-11",24.08,10.94,0.00,0.00,
"CA001107876","1963-01-12",26.06,12.02,0.00,0.00,
"CA001107876","1963-01-13",28.04,19.94,0.00,0.00,
"CA001107876","1963-01-14",33.08,26.06,66.00,13.00,
"CA001107876","1963-01-15",35.96,30.92,0.00,0.00,
"CA001107876","1963-01-16",35.96,30.02,8.00,0.00,
"CA001107876","1963-01-17",35.96,32.00,3.00,0.00,
"CA001107876","1963-01-18",37.94,28.04,0.00,0.00,
"CA001107876","1963-01-19",32.00,23.00,0.00,0.00,
"CA001107876","1963-01-20",37.94,23.00,0.00,0.00,
"CA001107876","1963-01-21",32.00,26.06,13.00,13.00,
"CA001107876","1963-01-22",39.92,30.92,0.00,0.00,
"CA001107876","1963-01-23",35.96,26.96,0.00,0.00,
"CA001107876","1963-01-24",37.94,28.94,0.00,0.00,
"CA001107876","1963-01-25",42.98,26.06,0.00,0.00,
"CA001107876","1963-01-26",37.94,24.98,0.00,0.00,
"CA001107876","1963-01-27",30.92,21.02,0.00,0.00,
"CA001107876","1963-01-28",32.00,23.00,0.00,0.00,
"CA001107876","1963-01-29",33.98,19.94,0.00,0.00,
"CA001107876","1963-01-30",30.02,19.04,43.00,43.00,
"CA001107876","1963-01-31",28.04,21.92,58.00,58.00,
"CA001107876","1963-02-01",37.94,23.00,0.00,0.00,
"CA001107876","1963-02-02",48.92,30.02,340.00,0.00,
"CA001107876","1963-02-03",55.04,33.08,89.00,0.00,
"CA001107876","1963-02-04",55.04,46.04,58.00,0.00,
"CA001107876","1963-02-05",55.04,44.06,38.00,0.00,
"CA001107876","1963-02-06",55.94,46.04,119.00,0.00,
"CA001107876","1963-02-07",57.92,42.08,0.00,0.00,
"CA001107876","1963-02-08",60.08,39.92,0.00,0.00,
"CA001107876","1963-02-09",60.08,37.04,0.00,0.00,
"CA001107876","1963-02-10",60.08,37.94,0.00,0.00,
"CA001107876","1963-02-11",59.00,35.06,0.00,0.00,
"CA001107876","1963-02-12",59.00,33.98,5.00,0.00,
"CA001107876","1963-02-13",44.06,35.96,18.00,0.00,
"CA001107876","1963-02-14",50.00,39.02,0.00,0.00,
"CA001107876","1963-02-15",42.98,33.08,64.00,0.00,
"CA001107876","1963-02-16",50.00,39.92,0.00,0.00,
"CA001107876","1963-02-17",46.94,39.92,33.00,0.00,
"CA001107876","1963-02-18",46.94,39.92,84.00,0.00,
"CA001107876","1963-02-19",55.94,42.08,64.00,0.00,
"CA001107876","1963-02-20",55.04,39.02,0.00,0.00,
"CA001107876","1963-02-21",53.06,37.94,0.00,0.00,
"CA001107876","1963-02-22",44.06,33.98,0.00,0.00,
"CA001107876","1963-02-23",42.08,35.96,0.00,0.00,
"CA001107876","1963-02-24",44.06,37.04,30.00,0.00,
"CA001107876","1963-02-25",46.04,37.04,475.00,0.00,
"CA001107876","1963-02-26",51.98,44.96,0.00,0.00,
"CA001107876","1963-02-27",48.02,37.04,109.00,0.00,
"CA001107876","1963-02-28",42.98,37.94,3.00,0.00,
"CA001107876","1963-03-01",44.96,35.96,3.00,0.00,
"CA001107876","1963-03-02",50.00,33.98,0.00,0.00,
"CA001107876","1963-03-03",48.02,28.04,0.00,0.00,
"CA001107876","1963-03-04",46.04,30.92,0.00,0.00,
"CA001107876","1963-03-05",48.02,28.94,0.00,0.00,
"CA001107876","1963-03-06",51.98,28.04,0.00,0.00,
"CA001107876","1963-03-07",51.98,30.02,0.00,0.00,
"CA001107876","1963-03-08",51.08,32.00,0.00,0.00,
"CA001107876","1963-03-09",48.92,28.94,0.00,0.00,
"CA001107876","1963-03-10",48.92,32.00,0.00,0.00,
"CA001107876","1963-03-11",53.96,30.92,0.00,0.00,
"CA001107876","1963-03-12",50.00,26.96,0.00,0.00,
"CA001107876","1963-03-13",44.96,33.08,43.00,0.00,
"CA001107876","1963-03-14",46.94,30.92,51.00,0.00,
"CA001107876","1963-03-15",46.04,32.00,79.00,0.00,
"CA001107876","1963-03-16",46.04,37.04,15.00,0.00,
"CA001107876","1963-03-17",48.92,33.08,23.00,0.00,
"CA001107876","1963-03-18",48.02,37.04,99.00,0.00,
"CA001107876","1963-03-19",53.06,35.96,142.00,0.00,
"CA001107876","1963-03-20",51.98,42.08,0.00,0.00,
"CA001107876","1963-03-21",60.08,46.04,0.00,0.00,
"CA001107876","1963-03-22",53.06,35.06,0.00,0.00,
"CA001107876","1963-03-23",46.04,39.02,0.00,0.00,
"CA001107876","1963-03-24",51.08,33.08,28.00,0.00,
"CA001107876","1963-03-25",50.00,33.98,25.00,0.00,
"CA001107876","1963-03-26",51.98,41.00,58.00,0.00,
"CA001107876","1963-03-27",53.96,44.06,102.00,0.00,
"CA001107876","1963-03-28",46.04,41.00,30.00,0.00,
"CA001107876","1963-03-29",51.98,33.98,23.00,0.00,
"CA001107876","1963-03-30",46.94,37.04,46.00,0.00,
"CA001107876","1963-03-31",44.96,33.98,5.00,0.00,
"CA001107876","1963-04-01",51.08,28.04,0.00,0.00,
"CA001107876","1963-04-02",51.98,33.08,3.00,0.00,
"CA001107876","1963-04-03",46.04,39.02,188.00,0.00,
"CA001107876","1963-04-04",55.04,41.00,36.00,0.00,
"CA001107876","1963-04-05",55.04,42.98,81.00,0.00,
"CA001107876","1963-04-06",46.94,39.92,38.00,0.00,
"CA001107876","1963-04-07",50.00,35.06,18.00,0.00,
"CA001107876","1963-04-08",55.04,35.06,30.00,0.00,
"CA001107876","1963-04-09",57.92,41.00,0.00,0.00,
"CA001107876","1963-04-10",57.02,37.94,5.00,0.00,
"CA001107876","1963-04-11",60.98,42.98,0.00,0.00,
"CA001107876","1963-04-12",60.98,,89.00,0.00,
"CA001107876","1963-04-13",62.06,39.92,3.00,0.00,
"CA001107876","1963-04-14",53.96,42.98,46.00,0.00,
"CA001107876","1963-04-15",46.04,39.02,104.00,0.00,
"CA001107876","1963-04-16",44.96,37.94,51.00,0.00,
"CA001107876","1963-04-17",50.00,35.96,5.00,0.00,
"CA001107876","1963-04-18",51.98,39.92,48.00,0.00,
"CA001107876","1963-04-19",51.98,41.00,0.00,0.00,
"CA001107876","1963-04-20",55.94,41.00,0.00,0.00,
"CA001107876","1963-04-21",59.00,37.04,0.00,0.00,
"CA001107876","1963-04-22",57.02,42.08,0.00,0.00,
"CA001107876","1963-04-23",53.96,42.98,0.00,0.00,
"CA001107876","1963-04-24",51.98,37.04,13.00,0.00,
"CA001107876","1963-04-25",60.08,41.00,0.00,0.00,
"CA001107876","1963-04-26",59.00,39.02,0.00,0.00,
"CA001107876","1963-04-27",57.92,39.02,0.00,0.00,
"CA001107876","1963-04-28",64.94,39.92,41.00,0.00,
"CA001107876","1963-04-29",57.92,42.08,94.00,0.00,
"CA001107876","1963-04-30",53.96,44.96,8.00,0.00,
"CA001107876","1963-05-01",51.98,39.02,284.00,0.00,
"CA001107876","1963-05-02",51.08,37.04,28.00,0.00,
"CA001107876","1963-05-03",53.06,35.96,0.00,0.00,
"CA001107876","1963-05-04",62.06,35.96,170.00,0.00,
"CA001107876","1963-05-05",51.98,37.94,0.00,0.00,
"CA001107876","1963-05-06",53.06,44.96,0.00,0.00,
"CA001107876","1963-05-07",55.94,37.94,0.00,0.00,
"CA001107876","1963-05-08",57.02,39.02,0.00,0.00,
"CA001107876","1963-05-09",59.00,35.96,0.00,0.00,
"CA001107876","1963-05-10",60.98,37.94,0.00,0.00,
"CA001107876","1963-05-11",62.96,37.94,0.00,0.00,
"CA001107876","1963-05-12",57.02,41.00,0.00,0.00,
"CA001107876","1963-05-13",62.96,39.92,0.00,0.00,
"CA001107876","1963-05-14",62.06,42.08,10.00,0.00,
"CA001107876","1963-05-15",60.98,48.02,0.00,0.00,
"CA001107876","1963-05-16",64.94,39.02,0.00,0.00,
"CA001107876","1963-05-17",73.94,41.00,0.00,0.00,
"CA001107876","1963-05-18",82.94,55.04,0.00,0.00,
"CA001107876","1963-05-19",82.94,51.08,0.00,0.00,
"CA001107876","1963-05-20",84.02,53.96,0.00,0.00,
"CA001107876","1963-05-21",87.98,55.94,0.00,0.00,
"CA001107876","1963-05-22",66.02,53.96,0.00,0.00,
"CA001107876","1963-05-23",66.02,44.96,0.00,0.00,
"CA001107876","1963-05-24",64.04,44.06,0.00,0.00,
"CA001107876","1963-05-25",64.04,42.08,0.00,0.00,
"CA001107876","1963-05-26",66.02,44.06,0.00,0.00,
"CA001107876","1963-05-27",64.94,46.94,0.00,0.00,
"CA001107876","1963-05-28",75.02,44.06,0.00,0.00,
"CA001107876","1963-05-29",73.04,48.92,0.00,0.00,
"CA001107876","1963-05-30",64.94,51.08,0.00,0.00,
"CA001107876","1963-05-31",66.02,48.02,0.00,0.00,
"CA001107876","1963-06-01",66.02,48.02,0.00,0.00,
"CA001107876","1963-06-02",60.98,48.92,0.00,0.00,
"CA001107876","1963-06-03",64.94,48.02,0.00,0.00,
"CA001107876","1963-06-04",53.96,48.92,69.00,0.00,
"CA001107876","1963-06-05",62.96,48.92,0.00,0.00,
"CA001107876","1963-06-06",64.94,51.08,0.00,0.00,
"CA001107876","1963-06-07",55.94,50.00,0.00,0.00,
"CA001107876","1963-06-08",57.92,48.02,33.00,0.00,
"CA001107876","1963-06-09",69.08,48.02,0.00,0.00,
"CA001107876","1963-06-10",71.96,48.02,0.00,0.00,
"CA001107876","1963-06-11",62.96,53.96,0.00,0.00,
"CA001107876","1963-06-12",66.02,53.06,0.00,0.00,
"CA001107876","1963-06-13",69.98,44.06,0.00,0.00,
"CA001107876","1963-06-14",80.06,48.02,0.00,0.00,
"CA001107876","1963-06-15",80.06,,0.00,0.00,
"CA001107876","1963-06-16",80.06,55.04,0.00,0.00,
"CA001107876","1963-06-17",73.94,53.06,0.00,0.00,
"CA001107876","1963-06-18",71.06,50.00,0.00,0.00,
"CA001107876","1963-06-19",69.08,57.02,0.00,0.00,
"CA001107876","1963-06-20",64.04,51.08,0.00,0.00,
"CA001107876","1963-06-21",57.92,48.02,89.00,0.00,
"CA001107876","1963-06-22",64.04,48.02,0.00,0.00,
"CA001107876","1963-06-23",66.02,51.08,0.00,0.00,
"CA001107876","1963-06-24",57.92,51.98,33.00,0.00,
"CA001107876","1963-06-25",62.96,46.94,23.00,0.00,
"CA001107876","1963-06-26",55.94,46.94,20.00,0.00,
"CA001107876","1963-06-27",60.08,44.06,28.00,0.00,
"CA001107876","1963-06-28",60.08,50.00,28.00,0.00,
"CA001107876","1963-06-29",64.04,48.02,8.00,0.00,
"CA001107876","1963-06-30",64.94,48.92,10.00,0.00,
"CA001107876","1963-07-01",71.96,48.02,0.00,0.00,
"CA001107876","1963-07-02",60.98,51.98,10.00,0.00,
"CA001107876","1963-07-03",71.96,46.94,3.00,0.00,
"CA001107876","1963-07-04",73.94,53.06,0.00,0.00,
"CA001107876","1963-07-05",71.06,51.08,0.00,0.00,
"CA001107876","1963-07-06",66.92,48.02,0.00,0.00,
"CA001107876","1963-07-07",73.94,48.92,193.00,0.00,
"CA001107876","1963-07-08",66.02,53.06,10.00,0.00,
"CA001107876","1963-07-09",62.96,53.06,0.00,0.00,
"CA001107876","1963-07-10",66.02,51.08,3.00,0.00,
"CA001107876","1963-07-11",64.04,53.06,0.00,0.00,
"CA001107876","1963-07-12",69.98,51.98,0.00,0.00,
"CA001107876","1963-07-13",73.04,51.08,0.00,0.00,
"CA001107876","1963-07-14",66.02,55.04,64.00,0.00,
"CA001107876","1963-07-15",64.04,53.06,8.00,0.00,
"CA001107876","1963-07-16",69.98,50.00,0.00,0.00,
"CA001107876","1963-07-17",71.96,51.98,0.00,0.00,
"CA001107876","1963-07-18",69.98,53.06,0.00,0.00,
"CA001107876","1963-07-19",71.96,51.98,0.00,0.00,
"CA001107876","1963-07-20",64.04,51.98,279.00,0.00,
"CA001107876","1963-07-21",64.04,53.96,74.00,0.00,
"CA001107876","1963-07-22",62.06,53.06,15.00,0.00,
"CA001107876","1963-07-23",69.98,46.04,0.00,0.00,
"CA001107876","1963-07-24",66.92,53.06,0.00,0.00,
"CA001107876","1963-07-25",68.00,53.06,0.00,0.00,
"CA001107876","1963-07-26",71.06,51.08,0.00,0.00,
"CA001107876","1963-07-27",71.96,50.00,0.00,0.00,
"CA001107876","1963-07-28",69.08,53.06,0.00,0.00,
"CA001107876","1963-07-29",68.00,48.92,0.00,0.00,
"CA001107876","1963-07-30",64.04,53.06,0.00,0.00,
"CA001107876","1963-07-31",69.08,51.98,0.00,0.00,
"CA001107876","1963-08-01",68.00,53.96,0.00,0.00,
"CA001107876","1963-08-02",71.96,48.92,0.00,0.00,
"CA001107876","1963-08-03",,,0.00,0.00,
"CA001107876","1963-08-04",,,0.00,0.00,
"CA001107876","1963-08-05",69.98,53.06,0.00,0.00,
"CA001107876","1963-08-06",69.08,51.98,0.00,0.00,
"CA001107876","1963-08-07",75.02,55.04,0.00,0.00,
"CA001107876","1963-08-08",84.92,55.04,0.00,0.00,
"CA001107876","1963-08-09",71.96,55.94,0.00,0.00,
"CA001107876","1963-08-10",,,0.00,0.00,
"CA001107876","1963-08-11",78.08,,5.00,0.00,
"CA001107876","1963-08-12",80.96,55.04,109.00,0.00,
"CA001107876","1963-08-13",64.94,57.92,0.00,0.00,
"CA001107876","1963-08-14",71.06,55.04,0.00,0.00,
"CA001107876","1963-08-15",71.96,51.98,0.00,0.00,
"CA001107876","1963-08-16",78.08,50.00,0.00,0.00,
"CA001107876","1963-08-17",69.98,51.08,0.00,0.00,
"CA001107876","1963-08-18",62.96,51.98,84.00,0.00,
"CA001107876","1963-08-19",66.92,53.06,23.00,0.00,
"CA001107876","1963-08-20",64.94,50.00,0.00,0.00,
"CA001107876","1963-08-21",68.00,53.96,0.00,0.00,
"CA001107876","1963-08-22",71.06,53.06,0.00,0.00,
"CA001107876","1963-08-23",73.04,51.08,86.00,0.00,
"CA001107876","1963-08-24",68.00,55.04,20.00,0.00,
"CA001107876","1963-08-25",69.08,53.96,0.00,0.00,
"CA001107876","1963-08-26",69.08,53.96,0.00,0.00,
"CA001107876","1963-08-27",71.06,55.04,0.00,0.00,
"CA001107876","1963-08-28",75.02,51.98,0.00,0.00,
"CA001107876","1963-08-29",80.96,53.06,0.00,0.00,
"CA001107876","1963-08-30",78.08,53.96,0.00,0.00,
"CA001107876","1963-08-31",64.94,53.96,0.00,0.00,
"CA001107876","1963-09-01",60.98,55.04,33.00,0.00,
"CA001107876","1963-09-02",71.96,55.94,0.00,0.00,
"CA001107876","1963-09-03",78.08,51.08,0.00,0.00,
"CA001107876","1963-09-04",78.98,55.04,0.00,0.00,
"CA001107876","1963-09-05",71.96,53.06,0.00,0.00,
"CA001107876","1963-09-06",73.94,51.08,0.00,0.00,
"CA001107876","1963-09-07",78.08,,0.00,0.00,
"CA001107876","1963-09-08",73.94,53.96,0.00,0.00,
"CA001107876","1963-09-09",86.00,55.94,0.00,0.00,
"CA001107876","1963-09-10",69.98,60.08,0.00,0.00,
"CA001107876","1963-09-11",78.08,57.02,0.00,0.00,
"CA001107876","1963-09-12",71.06,57.92,51.00,0.00,
"CA001107876","1963-09-13",69.08,57.02,8.00,0.00,
"CA001107876","1963-09-14",64.94,51.98,0.00,0.00,
"CA001107876","1963-09-15",68.00,44.96,0.00,0.00,
"CA001107876","1963-09-16",57.92,44.96,43.00,0.00,
"CA001107876","1963-09-17",64.94,44.06,0.00,0.00,
"CA001107876","1963-09-18",68.00,46.04,0.00,0.00,
"CA001107876","1963-09-19",71.06,44.06,0.00,0.00,
"CA001107876","1963-09-20",71.06,44.06,0.00,0.00,
"CA001107876","1963-09-21",68.00,51.98,15.00,0.00,
"CA001107876","1963-09-22",60.08,53.06,76.00,0.00,
"CA001107876","1963-09-23",62.96,51.98,0.00,0.00,
"CA001107876","1963-09-24",68.00,46.94,0.00,0.00,
"CA001107876","1963-09-25",71.06,44.96,0.00,0.00,
"CA001107876","1963-09-26",71.96,48.02,0.00,0.00,
"CA001107876","1963-09-27",78.08,50.00,0.00,0.00,
"CA001107876","1963-09-28",75.02,55.94,5.00,0.00,
"CA001107876","1963-09-29",75.02,51.08,0.00,0.00,
"CA001107876","1963-09-30",64.94,50.00,0.00,0.00,
"CA001107876","1963-10-01",68.00,46.94,0.00,0.00,
"CA001107876","1963-10-02",64.94,48.92,0.00,0.00,
"CA001107876","1963-10-03",62.06,50.00,91.00,0.00,
"CA001107876","1963-10-04",60.98,46.94,0.00,0.00,
"CA001107876","1963-10-05",57.02,44.06,48.00,0.00,
"CA001107876","1963-10-06",64.94,46.04,0.00,0.00,
"CA001107876","1963-10-07",60.98,46.04,69.00,0.00,
"CA001107876","1963-10-08",62.96,50.00,0.00,0.00,
"CA001107876","1963-10-09",64.94,50.00,0.00,0.00,
"CA001107876","1963-10-10",71.96,53.96,0.00,0.00,
"CA001107876","1963-10-11",64.04,53.06,0.00,0.00,
"CA001107876","1963-10-12",60.08,51.08,130.00,0.00,
"CA001107876","1963-10-13",62.06,53.06,56.00,0.00,
"CA001107876","1963-10-14",66.92,55.04,15.00,0.00,
"CA001107876","1963-10-15",69.08,53.96,0.00,0.00,
"CA001107876","1963-10-16",64.04,44.96,0.00,0.00,
"CA001107876","1963-10-17",55.94,44.06,3.00,0.00,
"CA001107876","1963-10-18",57.02,41.00,0.00,0.00,
"CA001107876","1963-10-19",53.06,35.96,64.00,0.00,
"CA001107876","1963-10-20",55.94,39.02,112.00,0.00,
"CA001107876","1963-10-21",57.02,46.94,356.00,0.00,
"CA001107876","1963-10-22",55.94,48.02,41.00,0.00,
"CA001107876","1963-10-23",53.06,46.04,38.00,0.00,
"CA001107876","1963-10-24",53.06,46.94,51.00,0.00,
"CA001107876","1963-10-25",50.00,41.00,36.00,0.00,
"CA001107876","1963-10-26",50.00,39.92,25.00,0.00,
"CA001107876","1963-10-27",48.92,37.04,246.00,0.00,
"CA001107876","1963-10-28",51.98,37.04,132.00,0.00,
"CA001107876","1963-10-29",51.08,41.00,0.00,0.00,
"CA001107876","1963-10-30",42.98,35.96,33.00,0.00,
"CA001107876","1963-10-31",55.94,39.92,0.00,0.00,
"CA001107876","1963-11-01",50.00,42.08,69.00,0.00,
"CA001107876","1963-11-02",48.92,42.08,5.00,0.00,
"CA001107876","1963-11-03",55.94,42.08,20.00,0.00,
"CA001107876","1963-11-04",51.08,42.98,8.00,0.00,
"CA001107876","1963-11-05",51.08,37.04,94.00,0.00,
"CA001107876","1963-11-06",46.94,39.02,15.00,0.00,
"CA001107876","1963-11-07",46.94,39.92,229.00,0.00,
"CA001107876","1963-11-08",48.02,37.04,41.00,0.00,
"CA001107876","1963-11-09",48.92,35.96,10.00,0.00,
"CA001107876","1963-11-10",51.08,35.96,0.00,0.00,
"CA001107876","1963-11-11",48.92,35.06,97.00,0.00,
"CA001107876","1963-11-12",50.00,35.96,102.00,0.00,
"CA001107876","1963-11-13",51.98,44.96,165.00,0.00,
"CA001107876","1963-11-14",53.06,44.96,107.00,0.00,
"CA001107876","1963-11-15",48.92,42.08,0.00,0.00,
"CA001107876","1963-11-16",46.94,42.08,0.00,0.00,
"CA001107876","1963-11-17",48.02,42.08,18.00,0.00,
"CA001107876","1963-11-18",42.98,37.04,147.00,0.00,
"CA001107876","1963-11-19",35.06,32.00,15.00,0.00,
"CA001107876","1963-11-20",35.96,23.00,5.00,0.00,
"CA001107876","1963-11-21",41.00,30.02,160.00,51.00,
"CA001107876","1963-11-22",46.94,30.92,130.00,0.00,
"CA001107876","1963-11-23",46.94,37.94,38.00,0.00,
"CA001107876","1963-11-24",48.92,39.02,137.00,0.00,
"CA001107876","1963-11-25",53.96,39.92,264.00,0.00,
"CA001107876","1963-11-26",51.08,42.08,36.00,0.00,
"CA001107876","1963-11-27",46.94,35.96,0.00,0.00,
"CA001107876","1963-11-28",42.98,30.92,0.00,0.00,
"CA001107876","1963-11-29",46.04,26.06,0.00,0.00,
"CA001107876","1963-11-30",53.96,30.02,0.00,0.00,
"CA001107876","1963-12-01",37.94,23.00,0.00,0.00,
"CA001107876","1963-12-02",37.94,23.00,0.00,0.00,
"CA001107876","1963-12-03",44.96,21.02,8.00,0.00,
"CA001107876","1963-12-04",46.04,30.92,173.00,0.00,
"CA001107876","1963-12-05",44.06,41.00,320.00,0.00,
"CA001107876","1963-12-06",46.94,35.96,0.00,0.00,
"CA001107876","1963-12-07",39.92,30.92,94.00,0.00,
"CA001107876","1963-12-08",39.02,33.08,25.00,0.00,
"CA001107876","1963-12-09",42.98,32.00,0.00,0.00,
"CA001107876","1963-12-10",39.92,26.06,0.00,0.00,
"CA001107876","1963-12-11",39.02,24.98,0.00,0.00,
"CA001107876","1963-12-12",39.92,24.98,0.00,0.00,
"CA001107876","1963-12-13",33.98,26.06,0.00,0.00,
"CA001107876","1963-12-14",37.04,32.00,305.00,0.00,
"CA001107876","1963-12-15",37.04,32.00,262.00,0.00,
"CA001107876","1963-12-16",37.94,33.08,18.00,0.00,
"CA001107876","1963-12-17",33.98,30.02,99.00,0.00,
"CA001107876","1963-12-18",41.00,30.02,86.00,0.00,
"CA001107876","1963-12-19",46.04,37.94,297.00,0.00,
"CA001107876","1963-12-20",48.02,41.00,10.00,0.00,
"CA001107876","1963-12-21",46.04,37.94,28.00,0.00,
"CA001107876","1963-12-22",53.06,37.94,523.00,0.00,
"CA001107876","1963-12-23",48.02,39.92,290.00,0.00,
"CA001107876","1963-12-24",60.08,44.96,20.00,0.00,
"CA001107876","1963-12-25",50.00,44.06,0.00,0.00,
"CA001107876","1963-12-26",42.08,37.04,71.00,0.00,
"CA001107876","1963-12-27",44.06,37.94,48.00,0.00,
"CA001107876","1963-12-28",46.04,39.92,0.00,0.00,
"CA001107876","1963-12-29",41.00,33.08,0.00,0.00,
"CA001107876","1963-12-30",53.96,33.08,117.00,0.00,
"CA001107876","1963-12-31",55.94,44.96,198.00,0.00,
"CA001107876","1964-01-01",55.04,,0.00,,
"CA001107876","1964-01-02",44.96,37.04,71.00,,
"CA001107876","1964-01-03",46.04,41.00,51.00,,
"CA001107876","1964-01-04",46.04,,64.00,,
"CA001107876","1964-01-05",46.04,30.92,91.00,,
"CA001107876","1964-01-06",44.06,35.06,0.00,,
"CA001107876","1964-01-07",37.94,28.04,69.00,,
"CA001107876","1964-01-08",,32.00,61.00,,
"CA001107876","1964-01-09",42.08,35.06,46.00,,
"CA001107876","1964-01-10",44.06,35.06,3.00,,
"CA001107876","1964-01-11",42.98,,0.00,,
"CA001107876","1964-01-12",41.00,33.98,61.00,,
"CA001107876","1964-01-13",42.98,35.06,142.00,,
"CA001107876","1964-01-14",42.98,35.06,104.00,,
"CA001107876","1964-01-15",44.06,37.04,373.00,,
"CA001107876","1964-01-16",46.94,37.04,18.00,,
"CA001107876","1964-01-17",42.98,37.04,51.00,,
"CA001107876","1964-01-18",42.98,35.96,33.00,,
"CA001107876","1964-01-19",39.02,35.06,168.00,,
"CA001107876","1964-01-20",39.02,32.00,97.00,,
"CA001107876","1964-01-21",39.02,32.00,18.00,,
"CA001107876","1964-01-22",39.02,32.00,0.00,,
"CA001107876","1964-01-23",35.06,30.92,46.00,,
"CA001107876","1964-01-24",46.04,32.00,145.00,,
"CA001107876","1964-01-25",48.92,35.96,0.00,,
"CA001107876","1964-01-26",44.96,33.98,18.00,,
"CA001107876","1964-01-27",51.08,33.98,8.00,,
"CA001107876","1964-01-28",46.94,39.92,163.00,,
"CA001107876","1964-01-29",46.04,37.04,8.00,,
"CA001107876","1964-01-30",44.06,39.02,56.00,,
"CA001107876","1964-01-31",48.92,39.02,107.00,,
"CA001107876","1964-02-01",46.04,37.94,0.00,0.00,
"CA001107876","1964-02-02",46.94,35.96,3.00,0.00,
"CA001107876","1964-02-03",50.00,35.96,61.00,0.00,
"CA001107876","1964-02-04",48.92,42.08,13.00,0.00,
"CA001107876","1964-02-05",46.04,30.92,0.00,0.00,
"CA001107876","1964-02-06",42.98,28.04,0.00,0.00,
"CA001107876","1964-02-07",39.92,28.94,0.00,0.00,
"CA001107876","1964-02-08",37.94,30.92,114.00,8.00,
"CA001107876","1964-02-09",42.98,35.96,5.00,0.00,
"CA001107876","1964-02-10",48.02,37.04,15.00,0.00,
"CA001107876","1964-02-11",44.96,28.94,0.00,0.00,